TAF and METAR

Decoding for American and Canadian METARs and TAFs is not fully implemented.

Could not understand the following METAR

KHHV 230935Z AUTO 13019G29KT 10SM BKN017 OVC021 49/46 A2993 RMK A01
No TAF available for Alaminos Canyon
Alaminos Canyon in United States of America at 25m

Latest 5 airports